Weather History for Grove, OK

Change the Weather History Date:

Monday, October 21, 2013

  Actual Average (KSLG) Record (KSLG)
Temperature  
Mean Temperature 49 °F -  
Max Temperature 59 °F 66 °F 82 °F (2003)
Min Temperature 39 °F 46 °F 33 °F (2011)
Degree Days  
Heating Degree Days 16    
Moisture  
Dew Point 43 °F    
Average Humidity 79    
Maximum Humidity 100    
Minimum Humidity 42    
Precipitation  
Precipitation 0.00 in - - ()
Sea Level Pressure  
Sea Level Pressure 30.07 in    
Wind  
Wind Speed 1 mph (NNE)    
Max Wind Speed 10 mph    
Max Gust Speed 18 mph    
Visibility 9 miles    
Events      
Averages and records for this station are not official NWS values.
T = Trace of Precipitation, MM = Missing Value Source: NWS Daily Summary

Daily Weather History Graph

Daily Weather History Graph

Search for Another Location

Airport:

Trip Planner

Search our weather history database for the weather conditions in past years. The results will help you decide how hot, cold, wet, or windy it might be!

Date:

Astronomy

Oct. 21, 2013 Rise Set
Actual Time 7:32 AM CDT 6:34 PM CDT
Civil Twilight 7:05 AM CDT 7:00 PM CDT
Nautical Twilight 6:35 AM CDT 7:30 PM CDT
Astronomical Twilight 6:05 AM CDT 8:00 PM CDT
Moon 8:31 PM CDT (10/21) 10:04 AM CDT (10/21)
Length of Visible Light 11h 54m
Length of Day
11h 02m
Waning Gibbous, 92% of the Moon is Illuminated
Oct 21
Waning Gibbous
Oct 26
Last Quarter
Nov 3
New
Nov 9
First Quarter
Nov 17
Full

Hourly Weather History & Observations

Time (CDT) Temp. Dew Point Humidity Pressure Visibility Wind Dir Wind Speed Gust Speed Precip Events Conditions
12:15 AM 53.6 °F 44.6 °F 72% 29.97 in 10.0 mi Calm Calm - N/A   Scattered Clouds
12:35 AM 51.8 °F 46.4 °F 82% 29.97 in 10.0 mi Calm Calm - N/A   Scattered Clouds
12:55 AM 51.8 °F 46.4 °F 82% 29.97 in 10.0 mi Calm Calm - N/A   Scattered Clouds
1:15 AM 50.0 °F 46.4 °F 87% 29.97 in 10.0 mi Calm Calm - N/A   Clear
1:35 AM 50.0 °F 50.0 °F 100% 29.97 in 10.0 mi Calm Calm - N/A   Clear
1:55 AM 48.2 °F 48.2 °F 100% 29.98 in 10.0 mi Calm Calm - N/A   Clear
2:15 AM 46.4 °F 46.4 °F 100% 29.98 in 10.0 mi Calm Calm - N/A   Clear
2:35 AM 46.4 °F 46.4 °F 100% 29.98 in 10.0 mi Calm Calm - N/A   Clear
2:55 AM 46.4 °F 46.4 °F 100% 29.98 in 10.0 mi Calm Calm - N/A   Clear
3:15 AM 46.4 °F 46.4 °F 100% 29.99 in 10.0 mi Calm Calm - N/A   Scattered Clouds
3:35 AM 46.4 °F 46.4 °F 100% 29.98 in 10.0 mi Calm Calm - N/A   Scattered Clouds
3:55 AM 46.4 °F 46.4 °F 100% 29.99 in 10.0 mi Calm Calm - N/A   Scattered Clouds
4:15 AM 46.4 °F 46.4 °F 100% 29.99 in 10.0 mi Calm Calm - N/A   Scattered Clouds
4:35 AM 48.2 °F 48.2 °F 100% 30.00 in 10.0 mi Calm Calm - N/A   Mostly Cloudy
4:55 AM 48.2 °F 48.2 °F 100% 29.99 in 10.0 mi Calm Calm - N/A   Overcast
5:15 AM 48.2 °F 48.2 °F 100% 30.00 in 10.0 mi Calm Calm - N/A   Mostly Cloudy
5:35 AM 48.2 °F 48.2 °F 100% 30.01 in 10.0 mi Calm Calm - N/A   Scattered Clouds
5:55 AM 50.0 °F 50.0 °F 100% 30.02 in 10.0 mi Calm Calm - N/A   Scattered Clouds
6:15 AM 51.8 °F 51.8 °F 100% 30.03 in 10.0 mi Calm Calm - N/A   Clear
6:35 AM 51.8 °F 51.8 °F 100% 30.04 in 10.0 mi SSE 3.5 mph - N/A   Mostly Cloudy
6:55 AM 51.8 °F 51.8 °F 100% 30.03 in 10.0 mi Calm Calm - N/A   Mostly Cloudy
7:15 AM 50.0 °F 50.0 °F 100% 30.03 in 10.0 mi Calm Calm - N/A   Scattered Clouds
7:35 AM 50.0 °F 50.0 °F 100% 30.03 in 10.0 mi Calm Calm - N/A   Mostly Cloudy
7:55 AM 50.0 °F 50.0 °F 100% 30.04 in 10.0 mi Calm Calm - N/A   Mostly Cloudy
8:15 AM 48.2 °F 48.2 °F 100% 30.05 in 10.0 mi Calm Calm - N/A   Scattered Clouds
8:35 AM 51.8 °F 51.8 °F 100% 30.05 in 10.0 mi NNE 4.6 mph - N/A   Scattered Clouds
8:55 AM 53.6 °F 44.6 °F 72% 30.06 in 10.0 mi NNE 8.1 mph - N/A   Scattered Clouds
9:15 AM 53.6 °F 44.6 °F 72% 30.10 in 10.0 mi North 4.6 mph - N/A   Scattered Clouds
9:35 AM 53.6 °F 42.8 °F 67% 30.09 in 10.0 mi NNE 10.4 mph 18.4 mph N/A   Mostly Cloudy
9:55 AM 53.6 °F 42.8 °F 67% 30.11 in 10.0 mi North 8.1 mph - N/A   Mostly Cloudy
10:15 AM 53.6 °F 42.8 °F 67% 30.11 in 10.0 mi North 8.1 mph 17.3 mph N/A   Mostly Cloudy
10:35 AM 53.6 °F 41.0 °F 62% 30.12 in 10.0 mi NNE 9.2 mph - N/A   Mostly Cloudy
10:55 AM 53.6 °F 41.0 °F 62% 30.13 in 10.0 mi North 6.9 mph - N/A   Mostly Cloudy
11:15 AM 55.4 °F 37.4 °F 51% 30.13 in 10.0 mi NNE 9.2 mph 17.3 mph N/A   Overcast
11:35 AM 53.6 °F 39.2 °F 58% 30.13 in 10.0 mi North 6.9 mph - N/A   Overcast
11:55 AM 53.6 °F 41.0 °F 62% 30.14 in 10.0 mi North 3.5 mph - N/A   Overcast
12:15 PM 51.8 °F 41.0 °F 67% 30.14 in 10.0 mi North 3.5 mph - N/A   Overcast
12:55 PM 51.8 °F 41.0 °F 67% 30.13 in 10.0 mi North 3.5 mph - N/A   Overcast
1:15 PM 51.8 °F 41.0 °F 67% 30.13 in 10.0 mi North 3.5 mph - N/A   Overcast
1:35 PM 51.8 °F 41.0 °F 67% 30.12 in 10.0 mi NNE 3.5 mph - N/A   Overcast
1:55 PM 51.8 °F 41.0 °F 67% 30.11 in 10.0 mi North 3.5 mph - N/A   Overcast
2:15 PM 51.8 °F 37.4 °F 58% 30.09 in 10.0 mi North 3.5 mph - N/A   Overcast
2:35 PM 55.4 °F 37.4 °F 51% 30.09 in 10.0 mi NE 3.5 mph - N/A   Scattered Clouds
2:55 PM 55.4 °F 37.4 °F 51% 30.09 in 10.0 mi NE 3.5 mph - N/A   Clear
3:15 PM 55.4 °F 39.2 °F 54% 30.08 in 10.0 mi East 3.5 mph - N/A   Clear
3:35 PM 59.0 °F 39.2 °F 48% 30.08 in 10.0 mi Calm Calm - N/A   Clear
3:55 PM 59.0 °F 35.6 °F 42% 30.08 in 10.0 mi North 3.5 mph - N/A   Clear
4:15 PM 59.0 °F 41.0 °F 51% 30.07 in 10.0 mi Calm Calm - N/A   Clear
4:35 PM 59.0 °F 35.6 °F 42% 30.08 in 10.0 mi Calm Calm - N/A   Clear
4:55 PM 59.0 °F 37.4 °F 45% 30.08 in 10.0 mi North 5.8 mph - N/A   Scattered Clouds
5:15 PM 57.2 °F 35.6 °F 44% 30.08 in 10.0 mi NNW 5.8 mph - N/A   Clear
5:35 PM 55.4 °F 37.4 °F 51% 30.08 in 10.0 mi NNW 5.8 mph - N/A   Clear
5:55 PM 55.4 °F 37.4 °F 51% 30.09 in 10.0 mi Calm Calm - N/A   Clear
6:15 PM 53.6 °F 37.4 °F 54% 30.09 in 10.0 mi Calm Calm - N/A   Clear
6:35 PM 53.6 °F 39.2 °F 58% 30.09 in 10.0 mi Calm Calm - N/A   Clear
6:55 PM 51.8 °F 42.8 °F 71% 30.09 in 10.0 mi Calm Calm - N/A   Clear
7:15 PM 51.8 °F 41.0 °F 67% 30.09 in 10.0 mi Calm Calm - N/A   Clear
7:35 PM 48.2 °F 42.8 °F 82% 30.10 in 10.0 mi Calm Calm - N/A   Clear
7:55 PM 46.4 °F 41.0 °F 81% 30.11 in 10.0 mi Calm Calm - N/A   Clear
8:15 PM 46.4 °F 41.0 °F 81% 30.11 in 5.0 mi Calm Calm - N/A   Haze
8:35 PM 44.6 °F 41.0 °F 87% 30.11 in 10.0 mi Calm Calm - N/A   Clear
8:55 PM 44.6 °F 41.0 °F 87% 30.12 in 5.0 mi Calm Calm - N/A   Clear
9:15 PM 44.6 °F 41.0 °F 87% 30.12 in 7.0 mi Calm Calm - N/A   Clear
9:35 PM 42.8 °F 42.8 °F 100% 30.12 in 0.8 mi Calm Calm - N/A   Mist
9:55 PM 42.8 °F 42.8 °F 100% 30.12 in 2.0 mi Calm Calm - N/A   Clear
10:15 PM 41.0 °F 41.0 °F 100% 30.12 in 1.2 mi Calm Calm - N/A   Mist
10:35 PM 41.0 °F 41.0 °F 100% 30.12 in 7.0 mi Calm Calm - N/A   Clear
10:55 PM 41.0 °F 41.0 °F 100% 30.12 in 7.0 mi Calm Calm - N/A   Clear
11:15 PM 41.0 °F 41.0 °F 100% 30.12 in 5.0 mi Calm Calm - N/A   Clear
11:35 PM 39.2 °F 39.2 °F 100% 30.12 in 7.0 mi Calm Calm - N/A   Clear
11:55 PM 39.2 °F 39.2 °F 100% 30.12 in 7.0 mi Calm Calm - N/A   Clear